Location: El Escondido
(32.5111°N, 116.6697°W)
Time: 04:39:00
(UTC+00:00)

Daily predictions for brighter satellites

Satellite Brightness Start Highest point End
(mag) Time Altitude Azimuth Time Altitude Azimuth Time Altitude Azimuth
CENTAUR R/B 2.3 03:12:24 10° SSW 03:17:49 69° ESE 03:24:12 10° NE
CSL-04 Rocket 3.8 03:13:39 10° SSE 03:19:09 89° ENE 03:24:44 10° NNW
Cosmos 2221 Rocket 3.6 03:20:39 10° S 03:25:04 63° E 03:29:28 10° NNE
BREEZE-M DEB (TANK) 2.5 03:23:17 10° NNW 03:25:11 32° NE 03:28:18 10° ESE
FALCON 9 DEB 3.9 03:24:22 10° S 03:27:22 29° SE 03:30:24 10° ENE
Okean 2 Rocket 3.7 03:26:50 10° N 03:31:05 41° E 03:35:20 10° SSE
Cosmos 614 Rocket 4.1 03:30:03 10° NNW 03:35:16 83° WSW 03:40:29 10° SSE
Cosmos 1400 Rocket 3.3 03:31:50 10° N 03:35:27 38° E 03:39:04 10° SSE
Cosmos 2251 Rocket 4.0 03:31:26 10° NNW 03:36:39 63° WSW 03:41:53 10° S
Resurs 01 Rocket 3.3 03:34:07 10° ESE 03:37:10 19° ENE 03:40:13 10° NNE
Nadezhda 3 Rocket 4.4 03:32:18 10° SSW 03:38:25 69° W 03:44:33 10° N
Cosmos 2285 Rocket 4.3 03:32:42 10° S 03:38:48 48° E 03:44:56 10° NNE
Cosmos 2151 Rocket 4.1 03:36:35 10° N 03:40:42 39° E 03:44:48 10° SSE
Meteor 1-15 Rocket 4.3 03:35:30 10° N 03:41:27 81° E 03:47:20 10° S
PEGASUS R/B 4.3 03:39:26 10° SSE 03:42:08 66° WSW 03:46:26 10° NNW
Cosmos 2056 Rocket 3.6 03:37:59 10° SSW 03:43:08 86° WNW 03:48:24 10° NNE
Cosmos 2263 Rocket 3.2 03:39:10 10° N 03:44:11 31° ENE 03:48:33 13° ESE
Cosmos 2297 Rocket 4.2 03:43:00 10° NW 03:47:30 25° WSW 03:52:01 10° SSW
Lacrosse 5 3.9 03:45:18 10° N 03:48:29 16° NE 03:51:40 10° ENE
Cosmos 2227 Rocket 3.8 03:46:20 10° NW 03:51:16 32° WSW 03:56:12 10° SSW
Cosmos 1842 3.2 03:47:29 10° S 03:51:23 76° E 03:55:20 10° N
ERS-2 3.0 03:51:09 10° N 03:54:42 51° WNW 03:58:14 10° SSW
Cosmos 407 Rocket 3.5 03:49:29 10° NNW 03:54:47 72° ENE 03:59:32 12° SSE
Cosmos 1674 Rocket 3.5 03:51:26 10° S 03:55:50 76° E 04:00:13 10° N
Cosmos 1300 Rocket 3.8 03:52:18 10° NNW 03:56:35 69° W 04:00:52 10° S
Helios 1A Rocket 3.8 03:53:48 10° S 03:57:44 47° W 04:01:40 10° NNW
Genesis I 3.8 03:57:16 10° SW 04:00:59 60° WNW 04:04:50 10° NNE
Cosmos 1339 Rocket 4.4 03:54:49 10° S 04:01:02 75° E 04:07:10 10° N
Cosmos 1420 Rocket 3.9 03:56:15 10° SSW 04:01:24 88° ESE 04:06:37 10° NNE
Cosmos 1766 3.4 04:00:34 10° N 04:04:25 71° W 04:08:15 10° S
USA 186 3.8 04:02:22 10° SSW 04:04:28 21° W 04:06:41 10° NW
Cosmos 1190 Rocket 4.1 04:01:56 10° N 04:07:13 68° ENE 04:11:13 18° SSE
MOS 1 4.3 04:02:03 10° SSE 04:07:40 84° ENE 04:13:24 10° NNW
Landsat 7 4.5 04:07:57 20° SE 04:10:42 38° ENE 04:15:05 10° N
SJ-6B 4.0 04:06:56 10° S 04:10:51 43° W 04:14:46 10° NNW
Cosmos 1470 3.2 04:11:45 10° N 04:15:33 44° E 04:17:13 27° SE
KM-V1 3.9 04:13:17 10° WSW 04:15:56 61° S 04:18:59 18° E
Cosmos 1674 4.2 04:16:07 19° E 04:16:07 19° E 04:18:43 10° NE
SPOT 3 Rocket 3.9 04:14:38 22° SE 04:17:44 47° ENE 04:22:40 10° N
OBJECT-B 3.3 04:20:50 10° SW 04:23:13 19° W 04:25:36 10° NW
ASTRO E2 3.4 04:20:15 10° SW 04:23:47 31° SSE 04:23:57 31° SSE
Aureole 2 Rocket 4.3 04:22:25 10° WNW 04:23:54 15° W 04:25:18 10° SW
CZ-2C R/B 3.8 04:22:26 10° NNE 04:27:10 62° E 04:30:28 19° S
Cosmos 1315 Rocket 3.1 04:23:47 10° N 04:27:49 51° E 04:29:13 34° SE
ATLAS 3B R/B 3.3 04:26:19 24° SE 04:28:26 29° ESE 04:33:56 10° NE
SL-16 R/B 2.6 04:24:37 10° SSW 04:30:13 67° WNW 04:35:52 10° NNE
Cosmos 2360 Rocket 2.3 04:26:52 15° S 04:31:24 50° ESE 04:36:51 10° NNE
Cosmos 2322 Rocket 2.2 04:27:09 10° SSW 04:32:50 84° WNW 04:38:33 10° NNE
Ariane Rocket 3.6 04:30:58 14° S 04:35:17 53° W 04:40:17 10° NNW
Cosmos 1726 1.9 04:34:01 10° N 04:37:39 87° E 04:38:43 44° S
Delta 128 3.9 04:34:03 10° WSW 04:38:22 48° S 04:39:33 38° SE
Okean 1 Rocket 3.0 04:35:04 10° N 04:39:27 89° W 04:41:27 32° S
Cosmos 676 Rocket 4.0 04:34:38 10° NNW 04:39:59 81° ENE 04:42:30 32° SSE
Cosmos 1954 Rocket 4.0 04:35:23 10° NNW 04:40:44 85° ENE 04:43:14 32° SSE
Cosmos 1455 Rocket 4.2 04:38:30 10° NNE 04:42:16 26° ENE 04:42:32 26° E
Cosmos 2227 4.1 04:38:52 10° NNW 04:44:30 89° WSW 04:47:10 33° SSE
Cosmos 1758 3.2 04:42:26 10° N 04:46:23 68° E 04:47:05 54° SE
COSMOS 2428 4.3 04:48:51 17° E 04:48:51 17° E 04:51:22 10° ENE
Lacrosse 5 rocket 0.9 04:44:58 10° SW 04:48:44 88° WNW 04:52:23 10° NE
BREEZE M DEB (TANK) 4.2 04:49:04 36° SE 04:49:36 37° ESE 04:59:48 10° NE
Cosmos 2322 4.5 04:50:06 30° E 04:50:06 30° E 04:54:52 10° NE
Cosmos 1707 3.8 04:48:44 15° SSW 04:51:37 42° W 04:55:19 10° N
Cosmos 2237 4.2 04:46:56 10° SSW 04:52:38 81° WNW 04:58:20 10° NNE
USA 81 3.9 04:49:04 10° N 04:54:22 82° E 04:56:25 38° S
Cosmos 1110 Rocket 3.8 04:55:36 37° S 04:57:38 70° ESE 05:02:47 10° NNE
USA 215 3.3 04:53:22 10° NE 04:59:41 51° SE 05:05:59 10° SSW
ATLAS 2A CENTAUR R/B 3.3 04:48:40 10° WSW 05:03:23 36° S 05:04:20 35° SSE
SPOT 5 3.4 05:09:16 43° E 05:09:54 45° ENE 05:14:43 10° N
Cosmos 2173 Rocket 4.2 05:04:45 10° N 05:11:02 58° E 05:12:37 46° SE
Resurs 01 Rocket 3.1 05:11:28 21° SW 05:13:24 30° W 05:17:17 10° NW
Cosmos 1025 Rocket 3.0 05:14:15 65° ENE 05:14:15 65° ENE 05:18:23 10° NNE
Cosmos 1953 2.7 05:10:03 10° N 05:13:34 53° NE 05:13:34 53° NE
Cosmos 1844 Rocket 3.5 05:09:53 10° N 05:15:05 36° ENE 05:15:57 34° E
CARTOSAT-1 3.4 05:16:30 78° E 05:16:32 78° ENE 05:20:52 10° N
Cosmos 1626 3.0 05:19:34 43° NNE 05:19:34 43° NNE 05:22:11 10° N
USA 245 3.8 05:17:47 57° SSW 05:18:31 68° W 05:23:43 10° NNW
Terra 2.6 05:20:33 38° ENE 05:20:33 38° ENE 05:24:47 10° N
BREEZE-M DEB (TANK) 4.4 05:23:24 10° WNW 05:25:07 17° NNW 05:27:23 10° NNE
Cosmos 1975 Rocket 4.1 05:23:52 31° SW 05:25:17 41° W 05:29:25 10° N
Cosmos 2263 Rocket 3.7 05:23:07 10° NW 05:27:57 29° WSW 05:30:15 22° SW
Cosmos 2333 4.1 05:27:13 50° SSW 05:28:48 88° ESE 05:34:34 10° NNE
SPOT 1/Viking Rocket 4.2 05:28:08 38° SW 05:29:30 47° W 05:34:27 10° NNW
Lacrosse 5 1.7 05:26:54 10° NW 05:31:58 80° SW 05:32:05 80° SSW
Cosmos 1461 4.2 05:29:40 10° N 05:32:40 30° NNE 05:32:40 30° NNE
Geosat 3.8 05:35:56 80° E 05:36:05 82° ENE 05:41:08 10° NNW
Cosmos 1850 Rocket 3.9 05:31:51 10° NNW 05:37:08 80° WSW 05:37:26 76° SSW
Cosmos 1802 Rocket 3.9 05:32:55 10° N 05:39:13 77° E 05:40:09 65° SE
Spot 2 Rocket 3.8 05:38:48 53° SW 05:39:22 56° W 05:44:21 10° NNW
Cosmos 2333 Rocket 2.1 05:38:37 67° SSW 05:39:28 88° ESE 05:45:14 10° NNE
ERS-1 Rocket 2.9 05:44:35 78° WSW 05:44:36 78° WSW 05:49:40 10° NNW
ATLAS CENTAUR R/B 3.6 05:44:12 10° N 05:47:04 19° NE 05:47:04 19° NE
ARIANE 5 R/B 3.6 05:51:18 41° W 05:51:18 41° W 05:55:15 10° NNW
Cosmos 2219 Rocket 2.1 05:52:52 78° SW 05:53:13 83° WNW 05:58:55 10° NNE
Cosmos 1459 Rocket 4.2 05:50:15 10° NNW 05:56:10 59° W 05:57:11 52° SW
Cosmos 1844 3.7 05:54:26 10° NNW 05:59:43 72° NE 05:59:43 72° NE
Meteor 1-24 Rocket 3.8 06:01:43 61° NE 06:01:43 61° NE 06:06:15 10° NNE
Cosmos 1302 Rocket 4.3 06:03:20 62° WNW 06:03:24 63° WNW 06:08:37 10° N
Cosmos 2237 Rocket 3.8 06:11:17 23° ENE 06:11:17 23° ENE 06:13:46 10° NE
Aureole 1 Rocket 4.4 06:05:34 10° NNW 06:11:58 68° WSW 06:12:58 61° SSW
Cosmos 2061 Rocket 4.0 06:07:43 10° N 06:14:07 71° W 06:14:32 69° WSW
ATLAS 3B R/B 3.6 06:13:22 13° WSW 06:18:48 42° NW 06:25:05 10° NNE
COSMOS 2428 3.4 06:30:48 46° W 06:31:19 47° WNW 06:36:51 10° N
Cosmos 2233 Rocket 4.0 06:30:20 10° N 06:35:58 74° NW 06:35:58 74° NW
NOSS 0 Rocket 4.1 06:41:11 68° NNE 06:41:11 68° NNE 06:46:34 10° NNE
USA 215 4.4 06:36:33 10° NNE 06:42:30 39° NW 06:48:28 10° WSW
Cosmos 2278 Rocket 3.4 06:43:12 10° N 06:47:35 33° NE 06:47:35 33° NE
ATLAS CENTAUR R/B 3.6 06:56:56 47° NE 06:56:56 47° NE 07:03:46 10° NE
Terra 4.2 06:59:26 16° WNW 06:59:26 16° WNW 07:01:17 10° NW
Cosmos 1844 Rocket 4.4 06:54:12 10° NW 06:57:36 23° W 06:57:36 23° W
GEOS 3 Rocket 4.4 07:01:29 50° N 07:01:29 50° N 07:05:36 10° NNW
Centaur D AC-28 3.9 07:05:38 59° SSW 07:07:09 65° SSE 08:19:15 10° E
USA 267 4.5 07:09:00 26° ENE 07:11:29 35° NE 07:17:15 10° NNW
Cosmos 1464 Rocket 4.3 07:14:32 10° N 07:19:49 63° NNE 07:19:49 63° NNE
ATLAS CENTAUR R/B 4.1 07:22:13 10° NW 07:23:12 16° NW 07:23:12 16° NW
Cosmos 1943 Rocket 4.5 07:28:02 10° NNE 07:30:42 13° ENE 07:31:43 13° ENE
SL-16 R/B 3.2 07:49:36 43° NNE 07:49:36 43° NNE 07:53:21 10° NNE
Cosmos 2237 Rocket 3.8 07:53:04 27° WNW 07:53:04 27° WNW 07:57:29 10° N
USA 229 DEB 4.4 07:56:00 40° ENE 07:56:00 40° ENE 08:00:25 10° NE
USA 229 4.5 07:56:07 39° ENE 07:56:07 39° ENE 08:00:31 10° NE
Cosmos 2034 Rocket 4.5 07:48:20 10° N 07:53:06 55° NNW 07:53:06 55° NNW
SJ 16-02 3.7 07:59:59 10° N 08:01:46 20° NNE 08:01:46 20° NNE
NOSS 3-1 (C) 4.1 08:06:16 43° NNE 08:06:16 43° NNE 08:10:12 10° NNE
NOSS 3-1 (A) 4.3 08:15:57 37° NE 08:15:57 37° NE 08:19:30 10° NE
Cosmos 2297 4.4 08:25:07 10° NNW 08:29:30 49° NNE 08:29:30 49° NNE
Cosmos 2278 Rocket 4.2 08:27:38 10° NW 08:29:24 18° WNW 08:29:24 18° WNW
ATLAS 5 CENTAUR R/B 4.0 08:44:46 48° SSE 08:44:46 48° SSE 09:19:52 10° ESE
USA 267 3.9 08:56:19 42° WNW 08:56:19 42° WNW 09:00:39 10° NW
Cosmos 540 Rocket 4.3 09:02:22 45° NE 09:02:22 45° NE 09:06:03 10° NNE
Cosmos 1943 3.5 09:05:01 62° NNE 09:05:01 62° NNE 09:09:42 10° NNE
Cosmos 1898 Rocket 4.4 09:02:37 10° N 09:07:30 43° ENE 09:07:30 43° ENE
Cosmos 1603 4.0 09:10:36 65° N 09:10:36 65° N 09:15:28 10° NNE
Cosmos 1943 Rocket 2.9 09:09:26 10° NNW 09:13:11 43° NW 09:13:11 43° NW
Cosmos 2279 Rocket 4.3 09:11:35 10° NNW 09:16:53 54° WNW 09:16:53 54° WNW
NPP 3.9 09:14:09 10° NNE 09:19:00 62° ENE 09:19:00 62° ENE
Resurs 1-4 Rocket 2.3 09:18:49 10° NNE 09:23:30 69° N 09:23:30 69° N
Cosmos 1570 Rocket 4.5 09:25:43 55° ENE 09:25:43 55° ENE 09:30:18 10° NNE
X-37B 4.1 09:25:42 10° N 09:25:42 10° N 09:25:53 10° N
USA 306 4.3 09:29:59 35° NE 09:29:59 35° NE 09:32:30 10° NE
CZ-2D R/B 2.3 09:28:36 10° N 09:33:11 65° NNW 09:33:11 65° NNW
Cosmos 2221 3.7 09:29:42 10° N 09:32:33 40° N 09:32:33 40° N
Meteor 2-2 Rocket 4.2 09:29:25 10° N 09:35:28 83° W 09:35:29 83° W
Cosmos 2208 Rocket 4.3 09:37:00 61° E 09:37:00 61° E 09:42:17 10° NNE
AQUA 4.1 09:34:41 10° NNE 09:38:49 66° NNE 09:38:49 66° NNE
Cosmos 2098 Rocket 3.9 09:41:14 60° WNW 09:41:14 60° WNW 09:46:08 10° N
ADEOS II 2.3 09:36:01 10° NNE 09:41:12 58° E 09:41:23 58° ESE
ARGOS Delta rocket 4.5 09:37:11 10° N 09:42:11 54° WNW 09:42:11 54° WNW
Nadezhda 4 Rocket 4.3 09:46:19 49° W 09:46:19 49° W 09:52:12 10° N
Cosmos 1606 4.1 09:43:25 10° N 09:45:54 37° NNE 09:45:54 37° NNE
Cosmos 2026 Rocket 4.0 09:47:20 60° SSE 09:48:27 76° E 09:54:45 10° N
SeaSat 1 3.3 09:45:07 10° NE 09:49:43 39° ESE 09:50:00 38° ESE
Cosmos 1242 Rocket 4.3 09:46:50 10° N 09:48:44 29° N 09:48:44 29° N
Cosmos 2369 Rocket 2.3 09:49:37 10° NNW 09:54:48 61° W 09:54:48 61° W
GPS 2-04 Rocket1 4.0 09:57:39 36° ENE 09:57:39 36° ENE 10:00:00 10° ENE
SL-16 R/B 2.4 09:56:35 64° SSW 09:57:22 71° WSW 10:03:34 10° NNW
IDEFIX/ARIANE 42P 3.4 09:55:26 10° NNE 10:00:25 44° E 10:01:44 37° SE
Cosmos 1656 Rocket 3.6 09:55:13 10° NNW 10:00:55 88° ENE 10:02:09 57° SSE
Cosmos 2263 4.0 09:57:09 10° NNW 10:02:48 78° WSW 10:03:22 70° SSW
CZ-4C R/B 3.8 10:04:44 16° SE 10:05:57 18° ESE 10:09:13 10° ENE
Cosmos 1633 4.4 10:11:12 24° NNW 10:11:12 24° NNW 10:12:54 10° N
ATLAS 5 CENTAUR R/B 2.0 10:11:02 45° NNW 10:11:02 45° NNW 10:14:29 10° NNE
USA 307 3.7 10:10:57 41° NW 10:10:57 41° NW 10:14:55 10° NNE
DELTA 2 R/B (1) 4.4 10:09:57 27° WNW 10:12:39 46° N 10:17:58 10° ENE
Meteor 2-15 Rocket 4.3 10:07:12 10° N 10:13:21 90° NW 10:15:34 43° S
Meteor 2-15 4.4 10:10:09 10° NNW 10:16:13 65° W 10:17:32 51° SW
Landsat 4 4.5 10:13:01 10° N 10:15:55 44° NNW 10:15:55 44° NNW
ATLAS 2A CENTAUR R/B 4.0 10:19:08 23° SE 10:19:08 23° SE 10:22:30 10° E
BREEZE-M DEB (TANK) 4.2 10:17:42 38° SSE 10:18:09 39° SSE 10:21:28 10° ENE
Helios 1B rocket 4.1 10:16:17 10° NNW 10:18:44 22° NW 10:18:44 22° NW
Cosmos 1932 4.3 10:15:56 10° NNW 10:22:07 79° WSW 10:26:25 21° SSE
Cosmos 1092 Rocket 4.5 10:23:35 38° W 10:24:31 40° W 10:30:14 10° N
Cosmos 2292 Rocket 3.6 10:25:58 45° N 10:25:58 45° N 10:28:08 10° N
USA 308 4.1 10:26:06 29° WNW 10:26:41 30° NW 10:30:28 10° NNE
ADEOS Rocket 3.4 10:22:03 26° S 10:26:43 79° WSW 10:33:45 10° NNW
Meteor 2-3 Rocket 3.6 10:26:23 49° SSW 10:27:58 78° W 10:33:34 10° N
Aureole 3 Rocket 3.7 10:25:29 10° NNW 10:29:32 45° W 10:29:33 45° W
IRS-1D 3.7 10:27:19 10° N 10:32:18 55° WNW 10:33:18 47° WSW
CZ-4C R/B 3.9 10:33:07 30° SE 10:34:26 46° ENE 10:37:45 10° N
CBERS-1 4.0 10:30:58 10° N 10:36:03 66° WNW 10:37:28 46° SW
Cosmos 1782 3.7 10:33:49 10° N 10:37:41 45° E 10:40:08 20° SSE
Cosmos 1655 Rocket 4.3 10:33:36 22° SSE 10:37:43 63° E 10:43:51 10° NNE
ASTEX 1 3.8 10:36:42 20° SSE 10:40:04 63° E 10:44:58 10° N
H-2A R/B 2.8 10:40:56 31° S 10:40:56 31° S 10:50:02 10° ESE
Lacrosse 4 Rocket 2.3 10:41:05 10° NNW 10:45:01 47° ENE 10:48:53 10° SE
IRS-P3 4.1 10:41:33 10° NNE 10:46:54 86° ESE 10:49:37 30° S
MSX 3.8 10:44:28 10° N 10:50:15 83° WNW 10:53:24 28° SSW
Meteor 1-26 Rocket 4.3 10:46:33 10° N 10:52:26 88° W 10:57:50 13° S
Cosmos 1933 3.6 10:51:36 10° NNW 10:55:33 48° W 10:56:17 42° SW
Alouette 2 Rocket 3.7 10:54:38 10° N 10:58:16 66° E 11:02:52 10° SSE
Cosmos 1271 Rocket 3.7 10:54:47 10° N 10:58:23 45° E 11:02:00 10° SSE
Cosmos 2298 Rocket 4.1 10:53:41 10° NNW 10:59:02 82° ENE 11:04:22 10° SSE
ERBS 2.5 11:02:15 46° W 11:02:46 53° NW 11:05:57 10° NNE
Cosmos 2150 Rocket 3.9 11:06:33 10° NNW 11:11:46 82° WSW 11:17:02 10° SSE
BREEZE-M DEB (TANK) 3.3 11:03:04 10° NW 11:11:49 61° SW 11:14:47 10° SSE
Meteor 2-16 Rocket 4.4 11:08:34 18° SSW 11:13:13 74° W 11:19:21 10° N
CZ-2D R/B 3.3 11:12:18 10° N 11:16:29 81° WNW 11:19:10 21° SSW
Delta 2 Rocket 3.0 11:15:05 30° SW 11:16:51 69° SSE 11:20:25 10° ENE
Cosmos 1500 Rocket 4.2 11:15:43 10° S 11:19:57 54° E 11:24:11 10° NNE
ADEOS II 4.0 11:17:37 10° NNW 11:20:20 14° WNW 11:22:19 12° W
CZ-2C R/B 2.6 11:17:16 10° NNE 11:22:11 68° E 11:26:54 10° S
Cosmos 1743 Rocket 4.1 11:19:00 10° S 11:23:16 59° E 11:27:35 10° NNE
Cosmos 1862 3.4 11:21:32 22° SSW 11:23:58 58° W 11:27:57 10° N
SeaSat 1 4.0 11:23:11 10° N 11:26:57 23° WNW 11:29:46 14° W
Cosmos 1125 Rocket 3.4 11:22:19 10° NNW 11:27:34 72° WSW 11:32:48 10° S
Intelsat 5-2 Rocket 4.2 11:25:57 20° SSW 11:27:36 27° SSE 11:33:25 10° ESE
CZ-2C R/B 3.1 11:26:21 11° S 11:27:42 13° SSE 11:29:20 10° ESE
SL-08 R/B 3.2 11:23:10 10° S 11:27:46 79° WSW 11:32:28 10° NNW
Cosmos 1328 Rocket 3.6 11:26:10 10° NNW 11:30:26 55° W 11:34:42 10° S
ARIANE 5 R/B 3.0 11:26:20 10° N 11:31:00 42° WNW 11:34:32 17° SW
S3M 4.1 11:26:23 10° NNW 11:32:22 55° W 11:38:24 10° SSW
Cosmos 2084 Rocket 3.2 11:30:54 18° SSW 11:33:47 80° ESE 11:37:44 10° NNE
deb Kosmos-1763 4.0 11:32:19 19° SSW 11:34:38 62° WNW 11:38:07 10° N
GPS 2-04 Rocket1 3.3 11:31:54 10° WNW 11:35:42 51° N 11:39:20 10° ENE
IDEFIX/ARIANE 42P 4.2 11:36:06 10° NNW 11:39:35 18° WNW 11:42:33 12° WSW
Meteor 2-6 Rocket 4.3 11:36:53 10° NNW 11:42:44 73° W 11:48:23 10° S
CZ-4B R/B 4.4 11:40:12 10° N 11:44:51 33° WNW 11:48:59 12° SW
NOSS 3-4 (A) 4.1 11:39:37 10° S 11:45:07 48° ESE 11:50:49 10° NE
NOSS 3-4 (C) 4.1 11:39:45 10° S 11:45:15 48° ESE 11:50:56 10° NE
SAR-Lupe-3 4.5 11:43:35 10° N 11:47:11 80° WNW 11:50:46 10° SSW
Cosmos 1484 Rocket 3.8 11:47:01 10° NNE 11:50:34 44° E 11:54:07 10° S
USA 281 3.8 11:45:49 10° S 11:51:40 34° WSW 11:57:34 10° NW
Sich 1 4.0 11:48:38 10° SSE 11:52:50 51° E 11:57:05 10° NNE
CZ-4C R/B 2.7 11:49:56 12° WSW 11:53:49 38° NW 11:58:51 10° NNE
Tianhe-1 1.1 11:52:45 13° WSW 11:55:29 82° NNW 11:58:38 10° ENE
